Time,TemperatureF,DewpointF,PressureIn,WindDirection,WindDirectionDegrees,WindSpeedMPH,WindSpeedGustMPH,Humidity,HourlyPrecipIn,Conditions,Clouds,dailyrainin,SolarRadiationWatts/m^2,SoftwareType,DateUTC
2013-01-17 00:04:00,27.7,20.8,30.11,NW,316,3.0,6.0,75,0.00,,,0.00,0,Wunderground v.1.15,2013-01-17 06:04:00,
2013-01-17 00:10:00,27.5,20.6,30.11,NW,317,5.0,5.0,75,0.00,,,0.00,0,Wunderground v.1.15,2013-01-17 06:10:00,
2013-01-17 00:15:00,27.4,20.5,30.12,NW,326,1.0,5.0,75,0.00,,,0.00,0,Wunderground v.1.15,2013-01-17 06:15:00,
2013-01-17 00:20:00,27.3,20.4,30.12,NW,326,0.0,1.0,75,0.00,,,0.00,0,Wunderground v.1.15,2013-01-17 06:20:00,
2013-01-17 00:26:00,27.0,20.1,30.13,NW,326,2.0,3.0,75,0.00,,,0.00,0,Wunderground v.1.15,2013-01-17 06:26:00,
2013-01-17 00:31:00,26.9,20.0,30.14,NW,307,3.0,4.0,75,0.00,,,0.00,0,Wunderground v.1.15,2013-01-17 06:31:00,
2013-01-17 00:36:00,26.7,19.8,30.14,NW,307,2.0,4.0,75,0.00,,,0.00,0,Wunderground v.1.15,2013-01-17 06:36:00,
2013-01-17 00:42:00,26.6,19.7,30.13,NW,307,1.0,3.0,75,0.00,,,0.00,0,Wunderground v.1.15,2013-01-17 06:42:00,
2013-01-17 00:47:00,26.3,19.5,30.14,NW,307,2.0,3.0,75,0.00,,,0.00,0,Wunderground v.1.15,2013-01-17 06:47:00,
2013-01-17 00:53:00,26.1,19.3,30.15,NW,307,3.0,4.0,75,0.00,,,0.00,0,Wunderground v.1.15,2013-01-17 06:53:00,
2013-01-17 00:58:00,25.9,19.1,30.15,NW,315,5.0,7.0,75,0.00,,,0.00,0,Wunderground v.1.15,2013-01-17 06:58:00,
2013-01-17 01:09:00,25.5,18.7,30.16,NW,316,0.0,4.0,75,0.00,,,0.00,0,Wunderground v.1.15,2013-01-17 07:09:00,
2013-01-17 01:15:00,25.2,18.1,30.16,NW,314,4.0,4.0,74,0.00,,,0.00,0,Wunderground v.1.15,2013-01-17 07:15:00,
2013-01-17 01:20:00,25.0,17.6,30.16,NW,321,2.0,4.0,73,0.00,,,0.00,0,Wunderground v.1.15,2013-01-17 07:20:00,
2013-01-17 01:26:00,24.8,17.4,30.16,NW,321,0.0,3.0,73,0.00,,,0.00,0,Wunderground v.1.15,2013-01-17 07:26:00,
2013-01-17 01:32:00,24.5,16.8,30.17,NW,321,1.0,4.0,72,0.00,,,0.00,0,Wunderground v.1.15,2013-01-17 07:32:00,
2013-01-17 01:37:00,24.1,16.4,30.17,NW,322,0.0,4.0,72,0.00,,,0.00,0,Wunderground v.1.15,2013-01-17 07:37:00,
2013-01-17 01:43:00,23.7,15.7,30.17,NW,322,1.0,3.0,71,0.00,,,0.00,0,Wunderground v.1.15,2013-01-17 07:43:00,
2013-01-17 01:48:00,23.4,15.1,30.18,NW,326,4.0,4.0,70,0.00,,,0.00,0,Wunderground v.1.15,2013-01-17 07:48:00,
2013-01-17 01:53:00,23.1,14.8,30.19,NW,320,3.0,3.0,70,0.00,,,0.00,0,Wunderground v.1.15,2013-01-17 07:53:00,
2013-01-17 01:58:00,22.9,14.2,30.19,NNW,328,2.0,5.0,69,0.00,,,0.00,0,Wunderground v.1.15,2013-01-17 07:58:00,
2013-01-17 02:03:00,22.7,14.1,30.19,NNW,336,2.0,4.0,69,0.00,,,0.00,0,Wunderground v.1.15,2013-01-17 08:03:00,
2013-01-17 02:08:00,22.6,13.6,30.20,NW,324,6.0,7.0,68,0.00,,,0.00,0,Wunderground v.1.15,2013-01-17 08:08:00,
2013-01-17 02:13:00,22.5,12.8,30.20,NNW,329,3.0,6.0,66,0.00,,,0.00,0,Wunderground v.1.15,2013-01-17 08:13:00,
2013-01-17 02:18:00,22.3,12.3,30.21,NW,315,8.0,8.0,65,0.00,,,0.00,0,Wunderground v.1.15,2013-01-17 08:18:00,
2013-01-17 02:23:00,22.2,12.2,30.21,NNW,333,2.0,8.0,65,0.00,,,0.00,0,Wunderground v.1.15,2013-01-17 08:23:00,
2013-01-17 02:28:00,22.0,12.0,30.21,North,349,2.0,8.0,65,0.00,,,0.00,0,Wunderground v.1.15,2013-01-17 08:28:00,
2013-01-17 02:33:00,21.8,11.8,30.22,North,9,3.0,4.0,65,0.00,,,0.00,0,Wunderground v.1.15,2013-01-17 08:33:00,
2013-01-17 02:38:00,21.6,11.3,30.22,NW,315,2.0,6.0,64,0.00,,,0.00,0,Wunderground v.1.15,2013-01-17 08:38:00,
2013-01-17 02:43:00,21.5,11.2,30.22,WNW,290,4.0,6.0,64,0.00,,,0.00,0,Wunderground v.1.15,2013-01-17 08:43:00,
2013-01-17 02:48:00,21.4,11.1,30.23,NW,326,7.0,7.0,64,0.00,,,0.00,0,Wunderground v.1.15,2013-01-17 08:48:00,
2013-01-17 02:53:00,21.3,10.7,30.23,NW,310,3.0,7.0,63,0.00,,,0.00,0,Wunderground v.1.15,2013-01-17 08:53:00,
2013-01-17 02:58:00,21.2,10.6,30.24,NW,310,3.0,7.0,63,0.00,,,0.00,0,Wunderground v.1.15,2013-01-17 08:58:00,
2013-01-17 03:03:00,21.1,10.8,30.24,NW,320,0.0,3.0,64,0.00,,,0.00,0,Wunderground v.1.15,2013-01-17 09:03:00,
2013-01-17 03:08:00,20.8,10.5,30.24,NW,318,2.0,6.0,64,0.00,,,0.00,0,Wunderground v.1.15,2013-01-17 09:08:00,
2013-01-17 03:13:00,20.7,10.8,30.24,NW,318,1.0,2.0,65,0.00,,,0.00,0,Wunderground v.1.15,2013-01-17 09:13:00,
2013-01-17 03:18:00,20.4,10.5,30.25,NW,318,1.0,3.0,65,0.00,,,0.00,0,Wunderground v.1.15,2013-01-17 09:18:00,
2013-01-17 03:23:00,20.2,10.3,30.25,NW,316,5.0,11.0,65,0.00,,,0.00,0,Wunderground v.1.15,2013-01-17 09:23:00,
2013-01-17 03:28:00,20.2,10.3,30.25,WNW,286,2.0,11.0,65,0.00,,,0.00,0,Wunderground v.1.15,2013-01-17 09:28:00,
2013-01-17 03:33:00,20.1,9.9,30.25,NW,304,4.0,7.0,64,0.00,,,0.00,0,Wunderground v.1.15,2013-01-17 09:33:00,
2013-01-17 03:38:00,20.0,9.8,30.25,WNW,300,3.0,7.0,64,0.00,,,0.00,0,Wunderground v.1.15,2013-01-17 09:38:00,
2013-01-17 03:43:00,19.9,9.7,30.25,NW,305,3.0,6.0,64,0.00,,,0.00,0,Wunderground v.1.15,2013-01-17 09:43:00,
2013-01-17 03:48:00,19.8,9.6,30.25,NW,309,1.0,6.0,64,0.00,,,0.00,0,Wunderground v.1.15,2013-01-17 09:48:00,
2013-01-17 03:54:00,19.6,9.4,30.26,WNW,300,3.0,5.0,64,0.00,,,0.00,0,Wunderground v.1.15,2013-01-17 09:54:00,
2013-01-17 03:58:00,19.4,9.2,30.26,WNW,300,0.0,5.0,64,0.00,,,0.00,0,Wunderground v.1.15,2013-01-17 09:58:00,
2013-01-17 04:04:00,19.3,9.1,30.27,WNW,300,0.0,3.0,64,0.00,,,0.00,0,Wunderground v.1.15,2013-01-17 10:04:00,
2013-01-17 04:08:00,19.2,8.7,30.27,WNW,300,1.0,4.0,63,0.00,,,0.00,0,Wunderground v.1.15,2013-01-17 10:08:00,
2013-01-17 04:13:00,19.1,8.6,30.27,WNW,300,3.0,5.0,63,0.00,,,0.00,0,Wunderground v.1.15,2013-01-17 10:13:00,
2013-01-17 04:18:00,19.0,8.5,30.27,WNW,300,2.0,5.0,63,0.00,,,0.00,0,Wunderground v.1.15,2013-01-17 10:18:00,
2013-01-17 04:23:00,18.9,8.4,30.27,WNW,300,3.0,5.0,63,0.00,,,0.00,0,Wunderground v.1.15,2013-01-17 10:23:00,
2013-01-17 04:28:00,18.7,8.2,30.27,WNW,300,3.0,5.0,63,0.00,,,0.00,0,Wunderground v.1.15,2013-01-17 10:28:00,
2013-01-17 04:34:00,18.6,8.4,30.27,WNW,300,1.0,3.0,64,0.00,,,0.00,0,Wunderground v.1.15,2013-01-17 10:34:00,
2013-01-17 04:39:00,18.4,8.2,30.27,WNW,300,0.0,3.0,64,0.00,,,0.00,0,Wunderground v.1.15,2013-01-17 10:39:00,
2013-01-17 04:44:00,18.2,8.4,30.28,WNW,300,1.0,4.0,65,0.00,,,0.00,0,Wunderground v.1.15,2013-01-17 10:44:00,
2013-01-17 04:49:00,18.1,8.3,30.28,WNW,300,0.0,4.0,65,0.00,,,0.00,0,Wunderground v.1.15,2013-01-17 10:49:00,
2013-01-17 04:54:00,18.0,8.2,30.28,WNW,300,4.0,4.0,65,0.00,,,0.00,0,Wunderground v.1.15,2013-01-17 10:54:00,
2013-01-17 04:59:00,17.9,8.5,30.28,WNW,300,1.0,4.0,66,0.00,,,0.00,0,Wunderground v.1.15,2013-01-17 10:59:00,
2013-01-17 05:04:00,17.8,8.4,30.28,WNW,300,2.0,3.0,66,0.00,,,0.00,0,Wunderground v.1.15,2013-01-17 11:04:00,
2013-01-17 05:09:00,17.6,8.5,30.28,WNW,300,1.0,3.0,67,0.00,,,0.00,0,Wunderground v.1.15,2013-01-17 11:09:00,
2013-01-17 05:14:00,17.5,8.4,30.28,WNW,300,2.0,3.0,67,0.00,,,0.00,0,Wunderground v.1.15,2013-01-17 11:14:00,
2013-01-17 05:19:00,17.5,8.4,30.28,NW,314,2.0,7.0,67,0.00,,,0.00,0,Wunderground v.1.15,2013-01-17 11:19:00,
2013-01-17 05:24:00,17.4,8.3,30.28,NW,309,3.0,6.0,67,0.00,,,0.00,0,Wunderground v.1.15,2013-01-17 11:24:00,
2013-01-17 05:29:00,17.3,8.2,30.28,NW,309,0.0,6.0,67,0.00,,,0.00,0,Wunderground v.1.15,2013-01-17 11:29:00,
2013-01-17 05:34:00,17.2,8.1,30.28,NW,309,1.0,4.0,67,0.00,,,0.00,0,Wunderground v.1.15,2013-01-17 11:34:00,
2013-01-17 05:39:00,17.1,7.7,30.29,NW,308,4.0,5.0,66,0.00,,,0.00,0,Wunderground v.1.15,2013-01-17 11:39:00,
2013-01-17 05:44:00,17.0,7.3,30.29,NW,308,1.0,5.0,65,0.00,,,0.00,0,Wunderground v.1.15,2013-01-17 11:44:00,
2013-01-17 05:49:00,17.0,6.9,30.30,NW,308,2.0,5.0,64,0.00,,,0.00,0,Wunderground v.1.15,2013-01-17 11:49:00,
2013-01-17 05:54:00,17.0,6.6,30.30,NW,307,2.0,4.0,63,0.00,,,0.00,0,Wunderground v.1.15,2013-01-17 11:54:00,
2013-01-17 05:59:00,16.9,6.5,30.30,WNW,288,2.0,5.0,63,0.00,,,0.00,0,Wunderground v.1.15,2013-01-17 11:59:00,
2013-01-17 06:04:00,16.8,6.7,30.29,WNW,288,1.0,4.0,64,0.00,,,0.00,0,Wunderground v.1.15,2013-01-17 12:04:00,
2013-01-17 06:09:00,16.7,6.6,30.29,WNW,288,0.0,4.0,64,0.00,,,0.00,0,Wunderground v.1.15,2013-01-17 12:09:00,
2013-01-17 06:14:00,16.6,6.5,30.30,WNW,288,0.0,1.0,64,0.00,,,0.00,0,Wunderground v.1.15,2013-01-17 12:14:00,
2013-01-17 06:19:00,16.5,6.4,30.30,WNW,288,0.0,1.0,64,0.00,,,0.00,0,Wunderground v.1.15,2013-01-17 12:19:00,
2013-01-17 06:24:00,16.3,6.2,30.30,WNW,288,0.0,0.0,64,0.00,,,0.00,0,Wunderground v.1.15,2013-01-17 12:24:00,
2013-01-17 06:29:00,16.1,6.4,30.31,WNW,288,0.0,0.0,65,0.00,,,0.00,0,Wunderground v.1.15,2013-01-17 12:29:00,
2013-01-17 06:34:00,15.8,6.4,30.31,WNW,288,0.0,0.0,66,0.00,,,0.00,0,Wunderground v.1.15,2013-01-17 12:34:00,
2013-01-17 06:39:00,15.6,6.3,30.31,WNW,288,0.0,0.0,66,0.00,,,0.00,0,Wunderground v.1.15,2013-01-17 12:39:00,
2013-01-17 06:44:00,15.3,6.0,30.32,WNW,288,0.0,1.0,66,0.00,,,0.00,0,Wunderground v.1.15,2013-01-17 12:44:00,
2013-01-17 06:49:00,15.0,6.0,30.32,WNW,288,2.0,2.0,67,0.00,,,0.00,0,Wunderground v.1.15,2013-01-17 12:49:00,
2013-01-17 06:54:00,14.9,6.2,30.33,WNW,288,0.0,2.0,68,0.00,,,0.00,0,Wunderground v.1.15,2013-01-17 12:54:00,
2013-01-17 06:59:00,14.8,6.1,30.33,WNW,288,1.0,2.0,68,0.00,,,0.00,0,Wunderground v.1.15,2013-01-17 12:59:00,
2013-01-17 07:04:00,14.7,6.0,30.33,WNW,288,0.0,1.0,68,0.00,,,0.00,0,Wunderground v.1.15,2013-01-17 13:04:00,
2013-01-17 07:09:00,14.5,6.2,30.33,WNW,288,0.0,1.0,69,0.00,,,0.00,0,Wunderground v.1.15,2013-01-17 13:09:00,
2013-01-17 07:14:00,14.4,6.1,30.34,WNW,288,1.0,2.0,69,0.00,,,0.00,0,Wunderground v.1.15,2013-01-17 13:14:00,
2013-01-17 07:19:00,14.4,6.1,30.34,WNW,288,0.0,3.0,69,0.00,,,0.00,0,Wunderground v.1.15,2013-01-17 13:19:00,
2013-01-17 07:24:00,14.4,6.4,30.34,WNW,288,0.0,1.0,70,0.00,,,0.00,5,Wunderground v.1.15,2013-01-17 13:24:00,
2013-01-17 07:30:00,14.4,6.4,30.34,WNW,288,0.0,0.0,70,0.00,,,0.00,7,Wunderground v.1.15,2013-01-17 13:30:00,
2013-01-17 07:35:00,14.4,6.1,30.34,WNW,288,0.0,1.0,69,0.00,,,0.00,11,Wunderground v.1.15,2013-01-17 13:35:00,
2013-01-17 07:40:00,14.4,6.4,30.34,WNW,288,0.0,0.0,70,0.00,,,0.00,12,Wunderground v.1.15,2013-01-17 13:40:00,
2013-01-17 07:45:00,14.4,6.4,30.34,WNW,288,0.0,0.0,70,0.00,,,0.00,16,Wunderground v.1.15,2013-01-17 13:45:00,
2013-01-17 07:50:00,14.5,6.8,30.34,WNW,288,0.0,0.0,71,0.00,,,0.00,21,Wunderground v.1.15,2013-01-17 13:50:00,
2013-01-17 07:55:00,14.8,7.1,30.35,WNW,288,1.0,1.0,71,0.00,,,0.00,30,Wunderground v.1.15,2013-01-17 13:55:00,
2013-01-17 08:00:00,15.4,7.4,30.35,WNW,288,0.0,0.0,70,0.00,,,0.00,40,Wunderground v.1.15,2013-01-17 14:00:00,
2013-01-17 08:05:00,15.8,7.4,30.35,WNW,288,2.0,3.0,69,0.00,,,0.00,51,Wunderground v.1.15,2013-01-17 14:05:00,
2013-01-17 08:10:00,16.1,7.1,30.35,WSW,244,4.0,7.0,67,0.00,,,0.00,62,Wunderground v.1.15,2013-01-17 14:10:00,
2013-01-17 08:15:00,16.4,6.7,30.35,WNW,284,4.0,7.0,65,0.00,,,0.00,76,Wunderground v.1.15,2013-01-17 14:15:00,
2013-01-17 08:21:00,16.8,6.4,30.36,West,279,5.0,6.0,63,0.00,,,0.00,93,Wunderground v.1.15,2013-01-17 14:21:00,
2013-01-17 08:26:00,17.0,6.2,30.36,NW,304,3.0,6.0,62,0.00,,,0.00,107,Wunderground v.1.15,2013-01-17 14:26:00,
2013-01-17 08:31:00,17.2,6.4,30.36,NW,323,7.0,7.0,62,0.00,,,0.00,123,Wunderground v.1.15,2013-01-17 14:31:00,
2013-01-17 08:36:00,17.5,6.3,30.37,NW,317,5.0,8.0,61,0.00,,,0.00,139,Wunderground v.1.15,2013-01-17 14:36:00,
2013-01-17 08:41:00,17.8,6.6,30.37,NW,319,1.0,4.0,61,0.00,,,0.00,155,Wunderground v.1.15,2013-01-17 14:41:00,
2013-01-17 08:46:00,18.0,6.4,30.37,NW,317,9.0,10.0,60,0.00,,,0.00,172,Wunderground v.1.15,2013-01-17 14:46:00,
2013-01-17 08:51:00,18.0,6.4,30.37,NW,315,1.0,8.0,60,0.00,,,0.00,186,Wunderground v.1.15,2013-01-17 14:51:00,
2013-01-17 08:56:00,18.2,6.6,30.37,NW,314,7.0,12.0,60,0.00,,,0.00,202,Wunderground v.1.15,2013-01-17 14:56:00,
2013-01-17 09:01:00,18.3,6.7,30.38,NW,323,4.0,7.0,60,0.00,,,0.00,218,Wunderground v.1.15,2013-01-17 15:01:00,
2013-01-17 09:06:00,18.4,6.4,30.38,NW,312,3.0,10.0,59,0.00,,,0.00,234,Wunderground v.1.15,2013-01-17 15:06:00,
2013-01-17 09:11:00,18.5,6.9,30.38,WNW,290,6.0,10.0,60,0.00,,,0.00,248,Wunderground v.1.15,2013-01-17 15:11:00,
2013-01-17 09:16:00,18.5,6.5,30.38,WNW,294,7.0,11.0,59,0.00,,,0.00,264,Wunderground v.1.15,2013-01-17 15:16:00,
2013-01-17 09:21:00,18.5,5.4,30.39,NW,316,13.0,14.0,56,0.00,,,0.00,279,Wunderground v.1.15,2013-01-17 15:21:00,
2013-01-17 09:26:00,18.2,4.7,30.39,NW,325,6.0,15.0,55,0.00,,,0.00,290,Wunderground v.1.15,2013-01-17 15:26:00,
2013-01-17 09:31:00,18.3,4.8,30.39,North,5,4.0,10.0,55,0.00,,,0.00,301,Wunderground v.1.15,2013-01-17 15:31:00,
2013-01-17 09:36:00,18.6,5.5,30.39,WNW,292,4.0,10.0,56,0.00,,,0.00,311,Wunderground v.1.15,2013-01-17 15:36:00,
2013-01-17 09:41:00,18.8,4.9,30.39,NW,311,5.0,10.0,54,0.00,,,0.00,322,Wunderground v.1.15,2013-01-17 15:41:00,
2013-01-17 09:46:00,18.8,4.9,30.39,NNW,329,12.0,15.0,54,0.00,,,0.00,332,Wunderground v.1.15,2013-01-17 15:46:00,
2013-01-17 09:51:00,18.7,4.8,30.39,WNW,293,9.0,13.0,54,0.00,,,0.00,343,Wunderground v.1.15,2013-01-17 15:51:00,
2013-01-17 09:56:00,18.8,5.7,30.40,NW,325,7.0,13.0,56,0.00,,,0.00,353,Wunderground v.1.15,2013-01-17 15:56:00,
2013-01-17 10:01:00,19.1,6.0,30.40,WNW,296,8.0,9.0,56,0.00,,,0.00,360,Wunderground v.1.15,2013-01-17 16:01:00,
2013-01-17 10:06:00,19.1,6.0,30.40,WNW,286,4.0,10.0,56,0.00,,,0.00,369,Wunderground v.1.15,2013-01-17 16:06:00,
2013-01-17 10:11:00,19.4,6.6,30.40,WNW,290,7.0,7.0,57,0.00,,,0.00,378,Wunderground v.1.15,2013-01-17 16:11:00,
2013-01-17 10:16:00,19.7,6.9,30.41,West,267,9.0,14.0,57,0.00,,,0.00,385,Wunderground v.1.15,2013-01-17 16:16:00,
2013-01-17 10:21:00,19.7,6.5,30.41,NW,318,8.0,15.0,56,0.00,,,0.00,394,Wunderground v.1.15,2013-01-17 16:21:00,
2013-01-17 10:26:00,19.6,6.4,30.41,WNW,296,6.0,15.0,56,0.00,,,0.00,403,Wunderground v.1.15,2013-01-17 16:26:00,
2013-01-17 10:31:00,19.6,6.4,30.41,WNW,286,9.0,13.0,56,0.00,,,0.00,408,Wunderground v.1.15,2013-01-17 16:31:00,
2013-01-17 10:36:00,19.5,5.9,30.40,NW,308,10.0,15.0,55,0.00,,,0.00,417,Wunderground v.1.15,2013-01-17 16:36:00,
2013-01-17 10:41:00,19.4,5.8,30.40,WNW,295,6.0,12.0,55,0.00,,,0.00,424,Wunderground v.1.15,2013-01-17 16:41:00,
2013-01-17 10:46:00,19.5,5.9,30.40,West,259,3.0,12.0,55,0.00,,,0.00,431,Wunderground v.1.15,2013-01-17 16:46:00,
2013-01-17 10:51:00,19.8,6.6,30.40,WNW,292,7.0,8.0,56,0.00,,,0.00,436,Wunderground v.1.15,2013-01-17 16:51:00,
2013-01-17 10:56:00,20.0,6.0,30.40,West,277,9.0,15.0,54,0.00,,,0.00,441,Wunderground v.1.15,2013-01-17 16:56:00,
2013-01-17 11:01:00,19.9,6.3,30.40,WNW,295,7.0,15.0,55,0.00,,,0.00,446,Wunderground v.1.15,2013-01-17 17:01:00,
2013-01-17 11:06:00,20.0,6.0,30.40,WNW,303,10.0,17.0,54,0.00,,,0.00,450,Wunderground v.1.15,2013-01-17 17:06:00,
2013-01-17 11:11:00,20.0,6.0,30.40,WNW,284,7.0,10.0,54,0.00,,,0.00,455,Wunderground v.1.15,2013-01-17 17:11:00,
2013-01-17 11:16:00,20.1,5.7,30.40,WNW,288,4.0,14.0,53,0.00,,,0.00,461,Wunderground v.1.15,2013-01-17 17:16:00,
2013-01-17 11:21:00,20.3,6.3,30.40,West,273,6.0,9.0,54,0.00,,,0.00,462,Wunderground v.1.15,2013-01-17 17:21:00,
2013-01-17 11:26:00,20.6,6.6,30.40,WNW,296,6.0,11.0,54,0.00,,,0.00,466,Wunderground v.1.15,2013-01-17 17:26:00,
2013-01-17 11:31:00,20.7,6.7,30.40,WNW,284,3.0,11.0,54,0.00,,,0.00,469,Wunderground v.1.15,2013-01-17 17:31:00,
2013-01-17 11:36:00,21.1,6.6,30.40,WNW,294,3.0,11.0,53,0.00,,,0.00,471,Wunderground v.1.15,2013-01-17 17:36:00,
2013-01-17 11:41:00,21.3,6.0,30.39,NW,311,6.0,11.0,51,0.00,,,0.00,473,Wunderground v.1.15,2013-01-17 17:41:00,
2013-01-17 11:46:00,21.4,6.9,30.39,West,279,5.0,11.0,53,0.00,,,0.00,473,Wunderground v.1.15,2013-01-17 17:46:00,
2013-01-17 11:51:00,21.6,7.1,30.39,WSW,258,5.0,8.0,53,0.00,,,0.00,475,Wunderground v.1.15,2013-01-17 17:51:00,
2013-01-17 11:56:00,21.5,6.6,30.39,West,281,7.0,13.0,52,0.00,,,0.00,475,Wunderground v.1.15,2013-01-17 17:56:00,
2013-01-17 12:01:00,21.6,6.2,30.39,WNW,295,5.0,11.0,51,0.00,,,0.00,476,Wunderground v.1.15,2013-01-17 18:01:00,
2013-01-17 12:06:00,21.6,5.8,30.39,NW,304,5.0,14.0,50,0.00,,,0.00,476,Wunderground v.1.15,2013-01-17 18:06:00,
2013-01-17 12:11:00,21.6,6.2,30.39,WNW,285,6.0,9.0,51,0.00,,,0.00,476,Wunderground v.1.15,2013-01-17 18:11:00,
2013-01-17 12:16:00,21.7,6.3,30.38,NW,308,7.0,12.0,51,0.00,,,0.00,475,Wunderground v.1.15,2013-01-17 18:16:00,
2013-01-17 12:21:00,21.7,5.9,30.38,WNW,292,10.0,14.0,50,0.00,,,0.00,473,Wunderground v.1.15,2013-01-17 18:21:00,
2013-01-17 12:26:00,21.8,6.0,30.38,NW,305,5.0,14.0,50,0.00,,,0.00,471,Wunderground v.1.15,2013-01-17 18:26:00,
2013-01-17 12:31:00,22.0,7.0,30.37,West,269,4.0,7.0,52,0.00,,,0.00,385,Wunderground v.1.15,2013-01-17 18:31:00,
2013-01-17 12:36:00,22.1,6.3,30.36,WNW,303,2.0,9.0,50,0.00,,,0.00,51,Wunderground v.1.15,2013-01-17 18:36:00,
2013-01-17 12:41:00,22.1,6.3,30.36,NW,306,4.0,6.0,50,0.00,,,0.00,40,Wunderground v.1.15,2013-01-17 18:41:00,
2013-01-17 12:47:00,22.1,6.3,30.36,NW,317,4.0,11.0,50,0.00,,,0.00,338,Wunderground v.1.15,2013-01-17 18:47:00,
2013-01-17 12:52:00,22.2,6.4,30.37,West,269,8.0,8.0,50,0.00,,,0.00,459,Wunderground v.1.15,2013-01-17 18:52:00,
2013-01-17 12:57:00,22.4,7.4,30.36,WNW,288,9.0,13.0,52,0.00,,,0.00,79,Wunderground v.1.15,2013-01-17 18:57:00,
2013-01-17 13:02:00,22.5,7.1,30.36,West,266,4.0,8.0,51,0.00,,,0.00,207,Wunderground v.1.15,2013-01-17 19:02:00,
2013-01-17 13:07:00,22.8,7.4,30.37,WNW,291,11.0,11.0,51,0.00,,,0.00,42,Wunderground v.1.15,2013-01-17 19:07:00,
2013-01-17 13:12:00,22.9,7.0,30.37,WNW,298,5.0,12.0,50,0.00,,,0.00,42,Wunderground v.1.15,2013-01-17 19:12:00,
2013-01-17 13:17:00,23.0,7.5,30.36,WNW,297,5.0,12.0,51,0.00,,,0.00,42,Wunderground v.1.15,2013-01-17 19:17:00,
2013-01-17 13:22:00,23.2,8.2,30.37,WSW,239,5.0,7.0,52,0.00,,,0.00,120,Wunderground v.1.15,2013-01-17 19:22:00,
2013-01-17 13:27:00,23.5,8.4,30.37,NW,307,8.0,12.0,52,0.00,,,0.00,88,Wunderground v.1.15,2013-01-17 19:27:00,
2013-01-17 13:32:00,23.6,8.1,30.37,WNW,287,7.0,13.0,51,0.00,,,0.00,81,Wunderground v.1.15,2013-01-17 19:32:00,
2013-01-17 13:37:00,23.6,8.5,30.36,West,273,2.0,13.0,52,0.00,,,0.00,76,Wunderground v.1.15,2013-01-17 19:37:00,
2013-01-17 13:42:00,23.7,8.2,30.36,WNW,282,11.0,12.0,51,0.00,,,0.00,399,Wunderground v.1.15,2013-01-17 19:42:00,
2013-01-17 13:47:00,23.8,7.8,30.35,WSW,254,3.0,12.0,50,0.00,,,0.00,392,Wunderground v.1.15,2013-01-17 19:47:00,
2013-01-17 13:52:00,23.9,8.4,30.35,West,277,9.0,10.0,51,0.00,,,0.00,385,Wunderground v.1.15,2013-01-17 19:52:00,
2013-01-17 13:57:00,24.0,8.5,30.35,WSW,237,5.0,10.0,51,0.00,,,0.00,376,Wunderground v.1.15,2013-01-17 19:57:00,
2013-01-17 14:02:00,24.3,8.7,30.35,NW,321,7.0,8.0,51,0.00,,,0.00,367,Wunderground v.1.15,2013-01-17 20:02:00,
2013-01-17 14:07:00,24.3,8.7,30.35,NW,314,4.0,10.0,51,0.00,,,0.00,357,Wunderground v.1.15,2013-01-17 20:07:00,
2013-01-17 14:12:00,24.4,8.8,30.35,WSW,237,5.0,8.0,51,0.00,,,0.00,348,Wunderground v.1.15,2013-01-17 20:12:00,
2013-01-17 14:17:00,24.5,8.9,30.35,West,275,5.0,8.0,51,0.00,,,0.00,341,Wunderground v.1.15,2013-01-17 20:17:00,
2013-01-17 14:22:00,24.6,9.0,30.35,WNW,303,6.0,10.0,51,0.00,,,0.00,329,Wunderground v.1.15,2013-01-17 20:22:00,
2013-01-17 14:27:00,24.8,9.2,30.35,SW,234,5.0,11.0,51,0.00,,,0.00,318,Wunderground v.1.15,2013-01-17 20:27:00,
2013-01-17 14:32:00,24.8,9.2,30.35,WNW,289,6.0,10.0,51,0.00,,,0.00,308,Wunderground v.1.15,2013-01-17 20:32:00,
2013-01-17 14:37:00,24.8,9.6,30.35,West,277,6.0,11.0,52,0.00,,,0.00,297,Wunderground v.1.15,2013-01-17 20:37:00,
2013-01-17 14:42:00,24.7,9.1,30.35,WSW,254,3.0,7.0,51,0.00,,,0.00,285,Wunderground v.1.15,2013-01-17 20:42:00,
2013-01-17 14:47:00,24.9,9.7,30.35,West,267,5.0,7.0,52,0.00,,,0.00,271,Wunderground v.1.15,2013-01-17 20:47:00,
2013-01-17 14:52:00,25.1,9.9,30.35,WSW,256,4.0,9.0,52,0.00,,,0.00,257,Wunderground v.1.15,2013-01-17 20:52:00,
2013-01-17 14:57:00,25.0,9.8,30.34,West,272,3.0,10.0,52,0.00,,,0.00,243,Wunderground v.1.15,2013-01-17 20:57:00,
2013-01-17 15:02:00,25.1,10.3,30.35,WSW,245,8.0,8.0,53,0.00,,,0.00,229,Wunderground v.1.15,2013-01-17 21:02:00,
2013-01-17 15:07:00,25.2,10.0,30.34,SW,227,3.0,9.0,52,0.00,,,0.00,213,Wunderground v.1.15,2013-01-17 21:07:00,
2013-01-17 15:12:00,25.2,10.4,30.35,WNW,296,5.0,7.0,53,0.00,,,0.00,197,Wunderground v.1.15,2013-01-17 21:12:00,
2013-01-17 15:17:00,25.4,10.6,30.34,WNW,290,6.0,9.0,53,0.00,,,0.00,181,Wunderground v.1.15,2013-01-17 21:17:00,
2013-01-17 15:22:00,25.4,10.6,30.34,West,267,4.0,9.0,53,0.00,,,0.00,165,Wunderground v.1.15,2013-01-17 21:22:00,
2013-01-17 15:28:00,25.4,10.6,30.35,WSW,252,3.0,13.0,53,0.00,,,0.00,148,Wunderground v.1.15,2013-01-17 21:28:00,
2013-01-17 15:33:00,25.4,10.6,30.35,WNW,290,4.0,7.0,53,0.00,,,0.00,132,Wunderground v.1.15,2013-01-17 21:33:00,
2013-01-17 15:38:00,25.5,11.1,30.35,WSW,256,4.0,7.0,54,0.00,,,0.00,116,Wunderground v.1.15,2013-01-17 21:38:00,
2013-01-17 15:43:00,25.5,11.1,30.35,West,268,2.0,8.0,54,0.00,,,0.00,104,Wunderground v.1.15,2013-01-17 21:43:00,
2013-01-17 15:48:00,25.5,11.1,30.35,WSW,249,3.0,8.0,54,0.00,,,0.00,90,Wunderground v.1.15,2013-01-17 21:48:00,
2013-01-17 15:53:00,25.6,11.2,30.35,West,280,4.0,6.0,54,0.00,,,0.00,76,Wunderground v.1.15,2013-01-17 21:53:00,
2013-01-17 15:58:00,25.6,11.2,30.35,NW,316,4.0,8.0,54,0.00,,,0.00,62,Wunderground v.1.15,2013-01-17 21:58:00,
2013-01-17 16:03:00,25.5,11.1,30.36,West,267,5.0,10.0,54,0.00,,,0.00,37,Wunderground v.1.15,2013-01-17 22:03:00,
2013-01-17 16:08:00,25.4,11.5,30.36,West,261,6.0,10.0,55,0.00,,,0.00,23,Wunderground v.1.15,2013-01-17 22:08:00,
2013-01-17 16:13:00,25.4,11.5,30.36,NW,311,11.0,14.0,55,0.00,,,0.00,21,Wunderground v.1.15,2013-01-17 22:13:00,
2013-01-17 16:18:00,25.4,11.5,30.36,WNW,287,8.0,14.0,55,0.00,,,0.00,19,Wunderground v.1.15,2013-01-17 22:18:00,
2013-01-17 16:23:00,25.2,11.7,30.36,WNW,286,5.0,15.0,56,0.00,,,0.00,18,Wunderground v.1.15,2013-01-17 22:23:00,
2013-01-17 16:28:00,25.1,11.6,30.36,WNW,285,7.0,15.0,56,0.00,,,0.00,16,Wunderground v.1.15,2013-01-17 22:28:00,
2013-01-17 16:33:00,24.9,11.8,30.36,West,279,4.0,11.0,57,0.00,,,0.00,16,Wunderground v.1.15,2013-01-17 22:33:00,
2013-01-17 16:38:00,24.8,11.7,30.36,NW,304,2.0,11.0,57,0.00,,,0.00,16,Wunderground v.1.15,2013-01-17 22:38:00,
2013-01-17 16:43:00,24.7,12.0,30.36,West,267,5.0,7.0,58,0.00,,,0.00,11,Wunderground v.1.15,2013-01-17 22:43:00,
2013-01-17 16:48:00,24.4,12.1,30.37,West,262,2.0,7.0,59,0.00,,,0.00,7,Wunderground v.1.15,2013-01-17 22:48:00,
2013-01-17 16:53:00,24.2,11.9,30.37,West,262,3.0,3.0,59,0.00,,,0.00,5,Wunderground v.1.15,2013-01-17 22:53:00,
2013-01-17 16:58:00,24.1,12.2,30.37,West,279,1.0,6.0,60,0.00,,,0.00,0,Wunderground v.1.15,2013-01-17 22:58:00,
2013-01-17 17:03:00,23.9,12.0,30.38,NW,306,2.0,7.0,60,0.00,,,0.00,0,Wunderground v.1.15,2013-01-17 23:03:00,
2013-01-17 17:08:00,23.8,11.9,30.38,NW,307,4.0,8.0,60,0.00,,,0.00,0,Wunderground v.1.15,2013-01-17 23:08:00,
2013-01-17 17:13:00,23.7,12.2,30.39,WNW,288,0.0,7.0,61,0.00,,,0.00,0,Wunderground v.1.15,2013-01-17 23:13:00,
2013-01-17 17:18:00,23.5,12.0,30.39,WNW,288,2.0,7.0,61,0.00,,,0.00,0,Wunderground v.1.15,2013-01-17 23:18:00,
2013-01-17 17:23:00,23.4,12.3,30.38,WNW,291,2.0,5.0,62,0.00,,,0.00,0,Wunderground v.1.15,2013-01-17 23:23:00,
2013-01-17 17:28:00,23.2,12.1,30.38,WNW,291,1.0,5.0,62,0.00,,,0.00,0,Wunderground v.1.15,2013-01-17 23:28:00,
2013-01-17 17:33:00,23.1,12.0,30.38,WSW,244,2.0,6.0,62,0.00,,,0.00,0,Wunderground v.1.15,2013-01-17 23:33:00,
2013-01-17 17:39:00,22.9,12.2,30.38,West,271,1.0,6.0,63,0.00,,,0.00,0,Wunderground v.1.15,2013-01-17 23:39:00,
2013-01-17 17:44:00,22.7,12.0,30.39,West,271,0.0,1.0,63,0.00,,,0.00,0,Wunderground v.1.15,2013-01-17 23:44:00,
2013-01-17 17:49:00,22.5,11.8,30.38,West,271,0.0,1.0,63,0.00,,,0.00,0,Wunderground v.1.15,2013-01-17 23:49:00,
2013-01-17 17:54:00,22.3,12.0,30.38,West,271,0.0,2.0,64,0.00,,,0.00,0,Wunderground v.1.15,2013-01-17 23:54:00,
2013-01-17 17:59:00,22.1,11.8,30.38,West,271,0.0,2.0,64,0.00,,,0.00,0,Wunderground v.1.15,2013-01-17 23:59:00,
2013-01-17 18:04:00,21.9,11.6,30.38,West,271,0.0,0.0,64,0.00,,,0.00,0,Wunderground v.1.15,2013-01-18 00:04:00,
2013-01-17 18:09:00,21.6,11.6,30.38,West,271,0.0,0.0,65,0.00,,,0.00,0,Wunderground v.1.15,2013-01-18 00:09:00,
2013-01-17 18:14:00,21.4,11.5,30.38,West,271,0.0,0.0,65,0.00,,,0.00,0,Wunderground v.1.15,2013-01-18 00:14:00,
2013-01-17 18:19:00,21.1,11.2,30.39,West,271,0.0,0.0,65,0.00,,,0.00,0,Wunderground v.1.15,2013-01-18 00:19:00,
2013-01-17 18:24:00,20.8,11.2,30.39,West,271,0.0,0.0,66,0.00,,,0.00,0,Wunderground v.1.15,2013-01-18 00:24:00,
2013-01-17 18:29:00,20.4,11.2,30.39,West,271,0.0,0.0,67,0.00,,,0.00,0,Wunderground v.1.15,2013-01-18 00:29:00,
2013-01-17 18:34:00,20.1,10.9,30.39,West,271,0.0,0.0,67,0.00,,,0.00,0,Wunderground v.1.15,2013-01-18 00:34:00,
2013-01-17 18:39:00,19.9,11.0,30.39,West,271,0.0,0.0,68,0.00,,,0.00,0,Wunderground v.1.15,2013-01-18 00:39:00,
2013-01-17 18:44:00,19.7,10.8,30.40,West,271,0.0,0.0,68,0.00,,,0.00,0,Wunderground v.1.15,2013-01-18 00:44:00,
2013-01-17 18:49:00,19.5,11.0,30.40,West,266,3.0,3.0,69,0.00,,,0.00,0,Wunderground v.1.15,2013-01-18 00:49:00,
2013-01-17 18:54:00,19.8,11.6,30.40,WNW,290,4.0,4.0,70,0.00,,,0.00,0,Wunderground v.1.15,2013-01-18 00:54:00,
2013-01-17 18:59:00,20.1,11.9,30.40,WNW,290,2.0,6.0,70,0.00,,,0.00,0,Wunderground v.1.15,2013-01-18 00:59:00,
2013-01-17 19:04:00,20.2,12.0,30.40,WNW,290,2.0,3.0,70,0.00,,,0.00,0,Wunderground v.1.15,2013-01-18 01:04:00,
2013-01-17 19:09:00,20.4,12.2,30.40,WNW,290,2.0,5.0,70,0.00,,,0.00,0,Wunderground v.1.15,2013-01-18 01:09:00,
2013-01-17 19:14:00,20.5,12.3,30.39,WNW,290,0.0,4.0,70,0.00,,,0.00,0,Wunderground v.1.15,2013-01-18 01:14:00,
2013-01-17 19:19:00,20.6,12.4,30.39,WNW,290,0.0,4.0,70,0.00,,,0.00,0,Wunderground v.1.15,2013-01-18 01:19:00,
2013-01-17 19:24:00,20.5,12.3,30.40,WNW,290,2.0,3.0,70,0.00,,,0.00,0,Wunderground v.1.15,2013-01-18 01:24:00,
2013-01-17 19:29:00,20.5,12.3,30.40,WNW,290,0.0,3.0,70,0.00,,,0.00,0,Wunderground v.1.15,2013-01-18 01:29:00,
2013-01-17 19:34:00,20.3,12.1,30.40,WNW,290,1.0,2.0,70,0.00,,,0.00,0,Wunderground v.1.15,2013-01-18 01:34:00,
2013-01-17 19:39:00,20.1,12.2,30.41,WNW,290,1.0,3.0,71,0.00,,,0.00,0,Wunderground v.1.15,2013-01-18 01:39:00,
2013-01-17 19:44:00,20.0,12.1,30.41,WNW,290,0.0,2.0,71,0.00,,,0.00,0,Wunderground v.1.15,2013-01-18 01:44:00,
2013-01-17 19:49:00,19.9,12.3,30.41,WNW,290,1.0,3.0,72,0.00,,,0.00,0,Wunderground v.1.15,2013-01-18 01:49:00,
2013-01-17 19:54:00,19.9,12.3,30.41,WNW,290,1.0,4.0,72,0.00,,,0.00,0,Wunderground v.1.15,2013-01-18 01:54:00,
2013-01-17 19:59:00,19.9,12.3,30.41,WNW,290,2.0,4.0,72,0.00,,,0.00,0,Wunderground v.1.15,2013-01-18 01:59:00,
2013-01-17 20:04:00,19.8,12.2,30.41,WNW,290,1.0,4.0,72,0.00,,,0.00,0,Wunderground v.1.15,2013-01-18 02:04:00,
2013-01-17 20:09:00,19.8,12.2,30.41,WNW,290,2.0,4.0,72,0.00,,,0.00,0,Wunderground v.1.15,2013-01-18 02:09:00,
2013-01-17 20:14:00,19.7,12.1,30.41,WNW,290,0.0,3.0,72,0.00,,,0.00,0,Wunderground v.1.15,2013-01-18 02:14:00,
2013-01-17 20:19:00,19.6,12.3,30.42,WNW,290,1.0,3.0,73,0.00,,,0.00,0,Wunderground v.1.15,2013-01-18 02:19:00,
2013-01-17 20:24:00,19.6,12.3,30.42,WNW,290,0.0,3.0,73,0.00,,,0.00,0,Wunderground v.1.15,2013-01-18 02:24:00,
2013-01-17 20:29:00,19.5,12.3,30.42,WNW,290,0.0,3.0,73,0.00,,,0.00,0,Wunderground v.1.15,2013-01-18 02:29:00,
2013-01-17 20:34:00,19.4,12.2,30.42,WNW,290,0.0,2.0,73,0.00,,,0.00,0,Wunderground v.1.15,2013-01-18 02:34:00,
2013-01-17 20:39:00,19.3,12.4,30.42,WNW,290,0.0,3.0,74,0.00,,,0.00,0,Wunderground v.1.15,2013-01-18 02:39:00,
2013-01-17 20:44:00,19.3,12.4,30.42,WNW,290,2.0,4.0,74,0.00,,,0.00,0,Wunderground v.1.15,2013-01-18 02:44:00,
2013-01-17 20:49:00,19.3,12.4,30.42,WNW,290,1.0,4.0,74,0.00,,,0.00,0,Wunderground v.1.15,2013-01-18 02:49:00,
2013-01-17 20:54:00,19.3,12.4,30.42,WNW,290,0.0,3.0,74,0.00,,,0.00,0,Wunderground v.1.15,2013-01-18 02:54:00,
2013-01-17 20:59:00,19.2,12.3,30.42,WNW,290,0.0,3.0,74,0.00,,,0.00,0,Wunderground v.1.15,2013-01-18 02:59:00,
2013-01-17 21:04:00,19.1,12.2,30.42,WNW,290,0.0,3.0,74,0.00,,,0.00,0,Wunderground v.1.15,2013-01-18 03:04:00,
2013-01-17 21:09:00,19.0,12.4,30.42,WNW,290,1.0,3.0,75,0.00,,,0.00,0,Wunderground v.1.15,2013-01-18 03:09:00,
2013-01-17 21:14:00,19.0,12.4,30.42,WNW,290,0.0,2.0,75,0.00,,,0.00,0,Wunderground v.1.15,2013-01-18 03:14:00,
2013-01-17 21:19:00,18.8,11.9,30.42,WNW,290,2.0,2.0,74,0.00,,,0.00,0,Wunderground v.1.15,2013-01-18 03:19:00,
2013-01-17 21:24:00,18.6,12.0,30.42,WNW,290,0.0,2.0,75,0.00,,,0.00,0,Wunderground v.1.15,2013-01-18 03:24:00,
2013-01-17 21:29:00,18.4,11.8,30.42,WNW,290,0.0,2.0,75,0.00,,,0.00,0,Wunderground v.1.15,2013-01-18 03:29:00,
2013-01-17 21:34:00,18.2,11.6,30.42,WNW,290,0.0,1.0,75,0.00,,,0.00,0,Wunderground v.1.15,2013-01-18 03:34:00,
2013-01-17 21:40:00,18.0,11.4,30.42,WNW,290,0.0,0.0,75,0.00,,,0.00,0,Wunderground v.1.15,2013-01-18 03:40:00,
2013-01-17 21:45:00,17.6,11.0,30.41,WNW,290,0.0,0.0,75,0.00,,,0.00,0,Wunderground v.1.15,2013-01-18 03:45:00,
2013-01-17 21:50:00,17.3,11.0,30.41,WNW,290,0.0,0.0,76,0.00,,,0.00,0,Wunderground v.1.15,2013-01-18 03:50:00,
2013-01-17 21:55:00,17.0,10.7,30.41,WNW,290,0.0,0.0,76,0.00,,,0.00,0,Wunderground v.1.15,2013-01-18 03:55:00,
2013-01-17 22:00:00,16.6,10.3,30.41,WNW,290,0.0,0.0,76,0.00,,,0.00,0,Wunderground v.1.15,2013-01-18 04:00:00,
2013-01-17 22:05:00,16.2,10.0,30.41,WNW,290,0.0,0.0,76,0.00,,,0.00,0,Wunderground v.1.15,2013-01-18 04:05:00,
2013-01-17 22:10:00,15.9,9.7,30.40,WNW,290,0.0,0.0,76,0.00,,,0.00,0,Wunderground v.1.15,2013-01-18 04:10:00,
2013-01-17 22:15:00,15.5,9.6,30.40,WNW,290,0.0,0.0,77,0.00,,,0.00,0,Wunderground v.1.15,2013-01-18 04:15:00,
2013-01-17 22:20:00,15.1,9.2,30.40,WNW,290,0.0,0.0,77,0.00,,,0.00,0,Wunderground v.1.15,2013-01-18 04:20:00,
2013-01-17 22:25:00,14.7,9.1,30.41,WNW,290,0.0,0.0,78,0.00,,,0.00,0,Wunderground v.1.15,2013-01-18 04:25:00,
2013-01-17 22:30:00,14.4,8.8,30.41,WNW,290,0.0,0.0,78,0.00,,,0.00,0,Wunderground v.1.15,2013-01-18 04:30:00,
2013-01-17 22:35:00,14.1,8.8,30.41,WNW,290,0.0,0.0,79,0.00,,,0.00,0,Wunderground v.1.15,2013-01-18 04:35:00,
2013-01-17 22:40:00,14.0,9.0,30.42,WNW,290,0.0,0.0,80,0.00,,,0.00,0,Wunderground v.1.15,2013-01-18 04:40:00,
2013-01-17 22:45:00,13.9,8.9,30.42,WNW,290,0.0,0.0,80,0.00,,,0.00,0,Wunderground v.1.15,2013-01-18 04:45:00,
2013-01-17 22:50:00,13.8,9.0,30.43,WNW,290,0.0,0.0,81,0.00,,,0.00,0,Wunderground v.1.15,2013-01-18 04:50:00,
2013-01-17 22:56:00,13.8,9.3,30.44,WNW,290,0.0,4.0,82,0.00,,,0.00,0,Wunderground v.1.15,2013-01-18 04:56:00,
2013-01-17 23:00:00,13.8,9.3,30.43,WNW,290,0.0,0.0,82,0.00,,,0.00,0,Wunderground v.1.15,2013-01-18 05:00:00,
2013-01-17 23:01:00,13.8,9.3,30.43,WNW,290,0.0,0.0,82,0.00,,,0.00,0,Wunderground v.1.15,2013-01-18 05:01:00,
2013-01-17 23:03:00,13.8,9.3,30.43,WNW,290,0.0,0.0,82,0.00,,,0.00,0,Wunderground v.1.15,2013-01-18 05:03:00,
2013-01-17 23:08:00,13.6,8.9,30.43,WNW,290,0.0,0.0,81,0.00,,,0.00,0,Wunderground v.1.15,2013-01-18 05:08:00,
2013-01-17 23:13:00,13.2,8.5,30.43,WNW,290,1.0,2.0,81,0.00,,,0.00,0,Wunderground v.1.15,2013-01-18 05:13:00,
2013-01-17 23:18:00,12.8,8.1,30.43,WNW,290,0.0,2.0,81,0.00,,,0.00,0,Wunderground v.1.15,2013-01-18 05:18:00,
2013-01-17 23:23:00,12.5,7.8,30.43,WNW,290,0.0,1.0,81,0.00,,,0.00,0,Wunderground v.1.15,2013-01-18 05:23:00,
2013-01-17 23:28:00,12.5,8.3,30.43,WNW,290,0.0,2.0,83,0.00,,,0.00,0,Wunderground v.1.15,2013-01-18 05:28:00,
2013-01-17 23:33:00,12.6,8.4,30.43,WNW,290,0.0,0.0,83,0.00,,,0.00,0,Wunderground v.1.15,2013-01-18 05:33:00,
2013-01-17 23:38:00,12.5,8.3,30.43,WNW,290,2.0,2.0,83,0.00,,,0.00,0,Wunderground v.1.15,2013-01-18 05:38:00,
2013-01-17 23:43:00,12.5,8.3,30.44,WNW,290,0.0,2.0,83,0.00,,,0.00,0,Wunderground v.1.15,2013-01-18 05:43:00,
2013-01-17 23:48:00,12.5,8.3,30.44,WNW,290,0.0,2.0,83,0.00,,,0.00,0,Wunderground v.1.15,2013-01-18 05:48:00,
2013-01-17 23:53:00,12.4,8.2,30.44,WNW,290,0.0,4.0,83,0.00,,,0.00,0,Wunderground v.1.15,2013-01-18 05:53:00,
2013-01-17 23:58:00,12.5,8.3,30.44,NNW,338,1.0,4.0,83,0.00,,,0.00,0,Wunderground v.1.15,2013-01-18 05:58:00,